User: anonymous   Login
Location: Bittelbronn
(48.4454°N, 8.5870°E)
Time: 05:44:42
(UTC+00:00)
Language:

MSX - Orbit

View from above orbital plane
View from above orbital plane
View from above satellite
View from above satellite

Ground track
Ground track

The orbit data is extracted from the following two-line orbital elements,

1 23851U 96024A   24204.38848244  .00000119  00000-0  11359-3 0  9996
2 23851  98.9702 142.9958 0007444   0.1681 359.9484 13.98245800441246
Epoch (UTC): 22 July 2024 09:19:24
Eccentricity: 0.0007444
inclination: 98.9702°
perigee height: 894 km
apogee height: 905 km
right ascension of ascending node: 142.9958°
argument of perigee: 0.1681°
revolutions per day: 13.98245800
mean anomaly at epoch: 359.9484°
orbit number at epoch: 44124

The dashed part of the orbit path shows where the satellite is in the earth's shadow,  

DLR